FW6045 Weather Reports


Display with metric or nautical units.
time (UTC)temp
F
wind
direction
speed
MPH
gust
MPH
rain 1hr
in
rain 24hr
in
rain mn
in
humidity
%
barometer
mb
20260502163111 51 277 5.0 12.0 0.00 0.00 0.00 57 1017.3
20260502161620 50 288 8.0 12.0 0.00 0.00 0.00 58 1017.5
20260502151558 47 295 3.0 9.0 0.00 0.00 0.00 59 1017.7
20260502130106 44 40 7.0 11.0 0.00 0.00 0.00 65 1017.2
20260502123115 43 360 2.0 7.0 0.00 0.00 0.00 74 1017.4
20260502121558 41 43 3.0 6.0 0.00 0.00 0.00 77 1016.8
20260502120114 41 25 1.0 5.0 0.00 0.00 0.00 77 1016.8
20260502114604 41 46 3.0 5.0 0.00 0.00 0.00 77 1016.6
20260502113127 40 82 2.0 8.0 0.00 0.00 0.00 80 1016.3
20260502111556 40 68 4.0 9.0 0.00 0.00 0.00 80 1016.1
20260502110058 39 22 3.0 6.0 0.00 0.00 0.00 82 1016.5
20260502104557 39 27 4.0 7.0 0.00 0.00 0.00 81 1016.4
20260502103055 40 11 4.0 7.0 0.00 0.00 0.00 80 1016.6
20260502101604 41 23 4.0 8.0 0.00 0.00 0.00 77 1016.5
20260502100106 41 63 5.0 8.0 0.00 0.00 0.00 77 1016.3
20260502070111 42 13 5.0 8.0 0.00 0.00 0.00 77 1016.2
20260502064558 43 30 3.0 6.0 0.00 0.00 0.00 75 1016.0
20260502063057 43 53 4.0 8.0 0.00 0.00 0.00 75 1016.0
20260502061556 43 24 6.0 8.0 0.00 0.00 0.00 75 1016.3
20260502060056 43 30 3.0 5.0 0.00 0.00 0.00 75 1016.5
20260502054556 43 30 3.0 4.0 0.00 0.00 0.00 75 1016.8
20260502053100 43 28 2.0 5.0 0.00 0.00 0.00 75 1016.8
20260502051603 43 24 3.0 7.0 0.00 0.00 0.00 75 1016.7
20260502050059 43 27 3.0 8.0 0.00 0.00 0.00 75 1016.5
20260502044614 43 16 5.0 9.0 0.00 0.00 0.00 74 1016.7
20260502043104 44 14 4.0 9.0 0.00 0.00 0.00 73 1016.6
20260502041558 44 9 6.0 9.0 0.00 0.00 0.00 72 1016.8
20260502040104 45 5 6.0 10.0 0.00 0.00 0.00 71 1016.8
20260502034557 45 355 6.0 10.0 0.00 0.00 0.00 69 1016.8
20260502033057 46 360 7.0 9.0 0.00 0.00 0.00 67 1016.7
20260502031557 47 9 5.0 10.0 0.00 0.00 0.00 65 1016.7
20260502030101 48 355 5.0 9.0 0.00 0.00 0.00 64 1016.7
20260502024559 47 5 5.0 9.0 0.00 0.00 0.00 64 1016.7
20260502023056 47 347 4.0 6.0 0.00 0.00 0.00 65 1016.7
20260502021558 48 349 3.0 6.0 0.00 0.00 0.00 63 1016.3
20260502020057 49 360 3.0 5.0 0.00 0.00 0.00 62 1016.0
20260502014554 49 19 4.0 7.0 0.00 0.00 0.00 61 1015.8
20260502013058 50 5 4.0 5.0 0.00 0.00 0.00 60 1015.6
20260502011557 50 352 3.0 7.0 0.00 0.00 0.00 60 1015.5
20260502010056 50 5 4.0 6.0 0.00 0.00 0.00 59 1015.6
20260502004556 51 9 4.0 8.0 0.00 0.00 0.00 59 1015.2
20260502003057 51 340 3.0 6.0 0.00 0.00 0.00 57 1015.1
20260502001559 52 344 3.0 10.0 0.00 0.00 0.00 56 1014.6
20260502000100 52 326 3.0 12.0 0.00 0.00 0.00 55 1014.0
20260501234600 52 331 7.0 14.0 0.00 0.00 0.00 54 1014.1
20260501233103 53 304 9.0 18.0 0.00 0.00 0.00 52 1014.3
20260501231609 53 17 9.0 17.0 0.00 0.00 0.00 52 1014.5
20260501230107 53 355 10.0 17.0 0.00 0.00 0.00 55 1014.0
20260501224610 53 355 9.0 19.0 0.00 0.00 0.00 56 1014.3
20260501223111 54 339 8.0 19.0 0.00 0.00 0.00 54 1014.2
20260501221608 54 342 7.0 16.0 0.00 0.00 0.00 56 1014.1
20260501220111 54 346 11.0 21.0 0.00 0.00 0.00 56 1014.0
20260501214607 53 321 6.0 21.0 0.00 0.00 0.00 57 1014.0
20260501213107 55 325 9.0 17.0 0.00 0.00 0.00 55 1014.1
20260501211614 54 297 9.0 16.0 0.00 0.00 0.00 58 1013.8
20260501210103 53 320 14.0 21.0 0.00 0.00 0.00 58 1014.1
20260501204607 54 320 15.0 23.0 0.00 0.00 0.00 55 1013.8
20260501203108 54 355 11.0 17.0 0.00 0.00 0.00 59 1013.9
20260501201601 54 335 13.0 25.0 0.00 0.00 0.00 57 1013.9
20260501200054 54 309 11.0 19.0 0.00 0.00 0.00 58 1013.8
20260501194618 53 325 8.0 16.0 0.00 0.00 0.00 60 1013.8
20260501193056 53 291 10.0 23.0 0.00 0.00 0.00 59 1013.9
20260501191559 54 315 11.0 19.0 0.00 0.00 0.00 59 1013.6
20260501190057 53 313 12.0 17.0 0.00 0.00 0.00 62 1013.7
20260501184556 53 339 8.0 20.0 0.00 0.00 0.00 64 1013.8
20260501183054 55 303 15.0 26.0 0.00 0.00 0.00 60 1013.6
20260501181619 54 330 13.0 25.0 0.00 0.00 0.00 60 1013.5